Погода в Чулаковке

Украина / Херсонская область     46°21′37″N   32°20′52″E
темп.,
°C
ветер,
м/с
пор.,
м/с
влажн.,
%
обл.,
%
осадки,
мм/ч
давл.,
гПа
погр.,
м
15 мая, сб
сб1500:00+14ююз510831 0.0 1012172
03:00+13ююз5109052 0.0 1012182
06:00+14ююз49890 0.0 1012169
09:00+17юз567795 0.0 1013281
12:00+18ююз566866 0.0 1014521
15:00+19ююз55645 0.0 1013530
18:00+18ююз346594 0.0 1013237
21:00+16ююв22701 0.0 101314
16 мая, вс
вс1600:00+14в227218 0.0 101211
03:00+14св3369100 0.0 101239
06:00+14св4775100 0.0 1011106
09:00+19св575997 0.0 1011295
12:00+23всв564695 0.0 10101001
15:00+23всв2446100 0.0 10081303
18:00+23с4649100 0.0 1006329
21:00+19ссв4767100 0.1 100697
17 мая, пн
пн1700:00+17с1487100 2.1 100593
03:00+16ссз4696100 13.3 1003138
06:00+15ссз369783 0.3 1003158
09:00+18с458997 0.4 1003361
12:00+16зсз71192100 1.2 1005410
15:00+18з697577 1.4 1006617
18:00+17ююз5782100 0.0 1006318
21:00+15ю479163 0.0 1007177
18 мая, вт
вт1800:00+15ю510938 0.4 1008223
03:00+15ю599230 0.4 1007181
06:00+14ю59958 0.0 1007184
09:00+16ю6888100 0.0 1008273
12:00+18юз687976 0.0 1008395
15:00+19юз6868100 0.0 1008433
18:00+17зюз6107523 0.0 1009367
21:00+15зюз23889 0.3 101042
19 мая, ср
ср1900:00+15юз33905 0.0 101130
03:00+15ююз228889 0.0 101113
06:00+15юв2289100 0.9 101137
09:00+16ююв6886100 1.6 1010267
12:00+17ю6781100 1.0 1010443
15:00+15ю6792100 3.1 1010346
18:00+14юз2295100 3.5 1010134
21:00+14всв2295100 6.9 1010103